This demonstration page uses our WeatherBlox Daily Observations layout. Learn more.

Left ArrowRight Arrow

39.08367, -84.50855

Hourly Observations for November 16, 2022

Temp ( °F °C ) Dew Point ( °F °C ) Humidity (%) Winds ( mph kmh ) Pressure ( in mb ) Visibility ( mi km ) Precip ( " mm )
12:36 am 00:36 Cloudy 40 4.4 33 0.6 76 76 W 13 20 30.18 1022 9 14 0.00 0.00
12:53 am 00:53 Cloudy 40 4.4 33 0.6 76 76 W 10 17 30.17 1022 9 14 0.00 0.00
1:08 am 01:08 Cloudy 39 3.9 34 1.1 82 82 W 12 19 30.19 1022 8 13 0.00 0.00
1:53 am 01:53 Cloudy with Light Rain 39 3.9 34 1.1 82 82 NW 9 15 30.17 1022 7 11 0.01 0.13
2:23 am 02:23 Cloudy 38 3.3 33 0.6 82 82 W 14 22 30.19 1022 7 11 0.01 0.13
2:53 am 02:53 Cloudy 38 3.3 33 0.6 82 82 W 12 19 30.19 1022 7 11 0.01 0.13
3:53 am 03:53 Cloudy 37 2.8 30 -1.1 75 75 W 9 15 30.19 1023 7 11 0.00 0.00
4:53 am 04:53 Cloudy 37 2.8 30 -1.1 75 75 W 10 17 30.19 1022 8 13 0.00 0.00
5:53 am 05:53 Cloudy 37 2.8 29 -1.7 72 72 W 12 19 30.20 1023 8 13 0.00 0.00
6:38 am 06:38 Cloudy 37 2.8 30 -1.1 75 75 WSW 6 9 30.22 1023 7 11 0.00 0.00
6:46 am 06:46 Cloudy 37 2.8 30 -1.1 75 75 W 8 13 30.22 1023 7 11 0.00 0.00
6:53 am 06:53 Cloudy 37 2.8 30 -1.1 75 75 W 5 7 30.20 1023 7 11 0.00 0.00
7:53 am 07:53 Cloudy with Haze 37 2.8 30 -1.1 75 75 WSW 7 11 30.21 1023 6 10 0.00 0.00
8:53 am 08:53 Cloudy with Haze 37 2.8 30 -1.1 75 75 WSW 8 13 30.22 1023 5 8 0.00 0.00
9:04 am 09:04 Cloudy with Haze 37 2.8 30 -1.1 75 75 W 8 13 30.23 1024 5 8 0.00 0.00
9:53 am 09:53 Cloudy with Light Snow 37 2.8 30 -1.1 75 75 WSW 7 11 30.22 1023 5 8 0.01 0.13
10:53 am 10:53 Cloudy with Mist and Fog 37 2.8 32 0 82 82 SW 5 7 30.22 1023 3 5 0.01 0.25
11:53 am 11:53 Cloudy with Drizzle 36 2.2 32 0 85 85 W 6 9 30.21 1023 3 5 0.01 0.13
12:53 pm 12:53 Cloudy with Mist and Fog 37 2.8 31 -0.6 78 78 WNW 9 15 30.19 1022 4 6 0.01 0.13
1:19 pm 13:19 Cloudy with Light Snow 34 1.1 31 -0.6 88 88 W 9 15 30.20 1023 1 1 0.01 0.25
1:38 pm 13:38 Cloudy with Mist and Fog 35 1.7 32 0 88 88 W 6 9 30.18 1022 3 5 0.02 0.51
1:53 pm 13:53 Cloudy with Mist and Fog 36 2.2 32 0 85 85 W 6 9 30.17 1022 4 6 0.02 0.51
2:13 pm 14:13 Cloudy with Mist and Fog 36 2.2 32 0 85 85 WNW 10 17 30.19 1023 3 5 0.00 0.00
2:20 pm 14:20 Cloudy with Light Snow 35 1.7 32 0 88 88 W 8 13 30.20 1023 2 2 0.01 0.25
2:39 pm 14:39 Cloudy with Light Snow 35 1.7 33 0.6 92 92 W 8 13 30.18 1022 2 2 0.02 0.51
2:44 pm 14:44 Cloudy with Mist and Fog 35 1.7 33 0.6 92 92 W 5 7 30.18 1022 2 2 0.02 0.51
2:53 pm 14:53 Cloudy with Mist and Fog 35 1.7 33 0.6 92 92 WSW 5 7 30.16 1022 4 6 0.02 0.51
3:32 pm 15:32 Cloudy with Light Snow 36 2.2 33 0.6 89 89 SSW 5 7 30.18 1022 3 4 0.01 0.13
3:40 pm 15:40 Cloudy with Light Snow 34 1.1 31 -0.6 88 88 SW 8 13 30.19 1022 1 1 0.01 0.25
3:53 pm 15:53 Cloudy with Light Snow 34 1.1 32 0 92 92 W 13 20 30.17 1022 4 6 0.03 0.76
4:04 pm 16:04 Cloudy with Light Snow 35 1.7 30 -1.1 82 82 W 14 22 30.18 1022 4 6 0.01 0.13
4:53 pm 16:53 Mostly Cloudy 35 1.7 30 -1.1 82 82 WSW 9 15 30.17 1022 7 11 0.01 0.13
5:53 pm 17:53 Cloudy 35 1.7 27 -2.8 72 72 WSW 8 13 30.17 1022 7 11 0.00 0.00
6:36 pm 18:36 Cloudy with Light Snow 35 1.7 27 -2.8 72 72 WNW 13 20 30.20 1023 2 3 0.01 0.13
6:43 pm 18:43 Cloudy with Light Snow 34 1.1 28 -2.2 79 79 W 9 15 30.21 1023 4 6 0.01 0.13
6:53 pm 18:53 Cloudy 34 1.1 27 -2.8 75 75 W 12 19 30.19 1022 9 14 0.01 0.13
7:27 pm 19:27 Cloudy with Light Snow 34 1.1 27 -2.8 75 75 NW 10 17 30.21 1023 2 3 0.01 0.13
7:37 pm 19:37 Cloudy with Light Snow 32 0 29 -1.7 88 88 undefined N/A 30.22 1023 4 6 0.01 0.13
7:53 pm 19:53 Cloudy 33 0.6 28 -2.2 81 81 W 13 20 30.20 1023 8 13 0.01 0.13
8:53 pm 20:53 Cloudy 33 0.6 27 -2.8 78 78 W 12 19 30.21 1023 9 14 0.01 0.13
9:53 pm 21:53 Cloudy 33 0.6 23 -5 66 66 W 12 19 30.21 1023 8 13 0.01 0.13
10:53 pm 22:53 Cloudy 32 0 21 -6.1 63 63 W 14 22 30.22 1023 10 16 0.00 0.00
11:53 pm 23:53 Mostly Cloudy 30 -1.1 20 -6.7 66 66 W 13 20 30.22 1023 9 14 0.00 0.00

Powered by AerisWeather